Location: Bodest
(46.3000°N, 22.5667°E)
Time: 21:23:43
(UTC+00:00)

Okean 2 Rocket - Pass Details

Date: 16 October 2021
Orbit: 617 x 641 km, 82.5° (Epoch: 29 November)

Event Time Altitude Azimuth Distance (km) Brightness Sun altitude
Rises 16:15:34 0° 199° (SSW) 2,893 6.9 -6.7°
Reaches altitude 10° 16:17:50 10° 204° (SSW) 1,995 6.1 -7.0°
Maximum altitude 16:22:10 54° 282° (WNW) 766 4.0 -7.8°
Drops below altitude 10° 16:26:34 10° 1° (N) 2,026 5.7 -8.5°
Sets 16:28:53 0° 6° (N) 2,943 6.4 -8.9°
